Regional Weather Roundup
Issued by NWS

Home | Current Version | Previous Version | Text Only | Print | Product List | Glossary On
Versions: 1 2 3 4 5 6 7 8 9 10 11 12 13 14 15 16 17 18 19 20 21 22 23 24 25 26 27 28 29 30 31 32 33 34 35 36 37 38 39 40 41 42 43 44 45 46 47 48 49 50
000
ASUS43 KDTX 300310
RWRMI
MICHIGAN HOURLY REGIONAL WEATHER ROUNDUP
NATIONAL WEATHER SERVICE DETROIT/PONTIAC MI
1100 PM EDT TUE JUL 29 2014

NOTE: "FAIR" INDICATES FEW OR NO CLOUDS BELOW 12,000 FEET WITH NO
SIGNIFICANT WEATHER AND/OR OBSTRUCTION TO VISIBILITY.

MIZ047>049-052>055-059>063-066>070-074>076-081>083-300400-
SOUTHEAST LOWER MICHIGAN

CITY           SKY/WX    TMP DP  RH WIND       PRES   REMARKS
ADRIAN         MOCLDY    60  59  96 CALM      30.00S
ALMA             N/A     55  54  95 CALM      29.97R FOG
ANN ARBOR      MOCLDY    58  55  90 CALM      29.98S
BAD AXE        PTCLDY    58  56  94 W3        29.94S
CARO           CLOUDY    62  59  92 SW3       29.95S
DETROIT CITY   CLOUDY    66  57  72 W3        29.97R
DETROIT        LGT RAIN  62  57  83 W6        29.99R
FLINT          MOCLDY    61  57  87 S6        29.98R
GROSSE ILE     LGT RAIN  64  57  77 W3        29.97S
HILLSDALE      PTCLDY    56  56 100 CALM      30.01S
HOWELL         PTCLDY    59  58  94 SW5       29.98S

CITY           SKY/WX    TMP DP  RH WIND       PRES   REMARKS
JACKSON        PTCLDY    60  54  80 CALM      29.99S
LAMBERTVILLE   MOCLDY    63  59  88 CALM      29.99F
LANSING        PTCLDY    62  54  74 CALM      29.98S
LAPEER         LGT RAIN  60  57  89 W7        29.96F
MASON          PTCLDY    61  54  77 CALM      29.98S
MONROE         CLOUDY    63  59  88 CALM      29.96F
MT. CLEMENS    LGT RAIN  64  57  77 W10       29.94F
PONTIAC        LGT RAIN  61  56  83 CALM      29.98F
PORT HOPE        N/A     62  58  86 W3        29.92R
PORT HURON     CLOUDY    61  57  88 CALM      29.96S
TRI CITIES     MOCLDY    61  58  90 SW6       29.97R
TROY           LGT RAIN  63  60  90 NW5       29.99S
SAGINAW HB     CLOUDY    61  55  82 SW8       29.96R
$$
MIZ043>046-050>051-056>058-064>065-071>073-077>080-300400-
SOUTHWEST LOWER MICHIGAN

CITY           SKY/WX    TMP DP  RH WIND       PRES   REMARKS
BATTLE CREEK   PTCLDY    61  54  77 SW5       30.00R
BENTON HARBOR  PTCLDY    58  56  93 CALM      30.00R
BIG RAPIDS     CLEAR     59  55  86 CALM      29.98R
COLDWATER      CLEAR     57  55  94 CALM      30.00S
FREMONT        FAIR      58  54  86 CALM      29.99R
HOLLAND        MOCLDY    62  58  86 W6        30.01R
GRAND RAPIDS   MOCLDY    65  57  75 W9        30.00R
IONIA          FAIR      60  53  79 W6        29.98R
KALAMAZOO      PTCLDY    61  55  81 S3        30.00R
LUDINGTON      PTCLDY    55  53  95 CALM      29.99R
MARSHALL       PTCLDY    56  54  91 CALM      29.99S
MOUNT PLEASANT PTCLDY    62  55  79 W3        29.96S
MUSKEGON       MOCLDY    58  54  86 SW3       30.00R
SOUTH HAVEN    MOCLDY    59  58  98 CALM      30.00R
$$
MIZ016>042-300400-
NORTHERN LOWER MICHIGAN

CITY           SKY/WX    TMP DP  RH WIND       PRES   REMARKS
ALPENA         MOCLDY    57  56  96 SW3       29.95R
BEAVER ISLAND  CLEAR     58  55  88 CALM      29.98S
BELLAIRE       CLOUDY    61  56  85 CALM      29.97R
CADILLAC       PTCLDY    55  54  97 CALM      29.98R
CHARLEVOIX     CLOUDY    61  59  92 NW7       30.00S
FRANKFORT      PTCLDY    57  54  89 CALM      29.98S
GAYLORD        CLOUDY    57  54  89 NW5       29.97S
GRAYLING       MOCLDY    54  54 100 CALM      29.99R
HARBOR SPRINGS PTCLDY    57  55  91 CALM      29.96S
HOUGHTON LAKE  CLEAR     58  53  84 NW3       29.97S
MANISTEE       PTCLDY    55  52  88 CALM      29.98S
OSCODA         PTCLDY    56  55  98 CALM      29.94R
PELLSTON       PTCLDY    56  50  80 NW6       29.97R
ROGERS CITY    PTCLDY    59  54  83 NW8       29.96S
TRAVERSE CITY  CLOUDY    64  55  72 NW8       29.96R
$$
MIZ007>008-015-300400-
EASTERN UPPER MICHIGAN

CITY           SKY/WX    TMP DP  RH WIND       PRES   REMARKS
KINROSS        MOCLDY    52  52 100 NW10      29.95S
MACKINAC ISLAN CLEAR     56  51  82 NW8       29.96R
NEWBERRY       CLEAR     51  50  98 NW3       29.97F
S. S. MARIE    CLOUDY    50  48  93 NW6       29.95S
MUNISING         N/A     55  53  93 CALM      29.99R
$$
MIZ004>006-011>014-085-300400-
CENTRAL UPPER MICHIGAN

CITY           SKY/WX    TMP DP  RH WIND       PRES   REMARKS
MANISTIQUE     CLEAR     54  53  94 N7        29.98S
ESCANABA       CLOUDY    61  52  72 N3        29.98S
MENOMINEE      MOCLDY    61  57  88 NE6       29.97R
SAWYER-GWINN   PTCLDY    54  52  95 CALM      29.99S FOG
$$
MIZ001>003-009>011-084-300400-
WESTERN UPPER MICHIGAN

CITY           SKY/WX    TMP DP  RH WIND       PRES   REMARKS
IRON MOUNTAIN  MOCLDY    62  53  72 N9        29.99R
HOUGHTON       CLEAR     54  50  86 NW7       30.02R
COPPER HARBOR    N/A     55  47  74 VRB3      30.00R
$$

ABBREVIATIONS USED IN REMARKS
   TC - TEMPERATURE IN CELSIUS
  WCI - WIND CHILL INDEX
   HX - HEAT INDEX
  VSB - VISIBILITY



USA.gov is the U.S. government's official web portal to all federal, state and local government web resources and services.